"Sample Date","Sample Time","Sample Value","Units","Flow Rate","Sample Interval","Number Channels","Micron Size 0","Counts/Channel 0","Micron Size 1","Counts/Channel 1","Micron Size 2","Counts/Channel 2","Micron Size 3","Counts/Channel 3","Micron Size 4","Counts/Channel 4","Micron Size 5","Counts/Channel 5","Micron Size 6","Counts/Channel 6","Micron Size 7","Counts/Channel 7","Micron Size 8","Counts/Channel 8","Micron Size 9","Counts/Channel 9","Micron Size 10","Counts/Channel 10","Micron Size 11","Counts/Channel 11","Micron Size 12","Counts/Channel 12","Micron Size 13","Counts/Channel 13","Micron Size 14","Counts/Channel 14","Micron Size 15","Counts/Channel 15","Micron Size 16","Counts/Channel 16","Micron Size 17","Counts/Channel 17","Micron Size 18","Counts/Channel 18","Micron Size 19","Counts/Channel 19","Micron Size 20","Counts/Channel 20","Micron Size 21","Counts/Channel 21","Micron Size 22","Counts/Channel 22","Micron Size 23","Counts/Channel 23","Micron Size 24","Counts/Channel 24","Micron Size 25","Counts/Channel 25","Micron Size 26","Counts/Channel 26","Micron Size 27","Counts/Channel 27","Micron Size 28","Counts/Channel 28","Micron Size 29","Counts/Channel 29","Micron Size 30","Counts/Channel 30","Micron Size 31","Counts/Channel 31"
"04/06/08","12:00:01",14145.000,"cc",28325.475,6.00,6,0.100,12408.000,0.200,847.000,0.300,375.000,0.500,371.000,1.000,144.000,5.000,0
"04/06/08","12:00:07",14173.000,"cc",28375.416,6.00,6,0.100,12434.000,0.200,868.000,0.300,391.000,0.500,354.000,1.000,126.000,5.000,0
"04/06/08","12:00:13",14376.000,"cc",28367.578,6.00,6,0.100,12510.000,0.200,887.000,0.300,428.000,0.500,405.000,1.000,146.000,5.000,0
"04/06/08","12:00:19",14289.000,"cc",28293.418,6.00,6,0.100,12490.000,0.200,908.000,0.300,363.000,0.500,394.000,1.000,134.000,5.000,0
"04/06/08","12:00:25",14242.000,"cc",28319.248,6.00,6,0.100,12562.000,0.200,841.000,0.300,353.000,0.500,356.000,1.000,130.000,5.000,0
"04/06/08","12:00:31",14343.000,"cc",28290.641,6.00,6,0.100,12610.000,0.200,807.000,0.300,377.000,0.500,417.000,1.000,132.000,5.000,0
"04/06/08","12:00:37",13508.000,"cc",28299.047,6.00,6,0.100,11808.000,0.200,807.000,0.300,377.000,0.500,394.000,1.000,122.000,5.000,0
"04/06/08","12:00:43",13508.000,"cc",28345.115,6.00,6,0.100,11748.000,0.200,846.000,0.300,394.000,0.500,386.000,1.000,134.000,5.000,0
"04/06/08","12:00:49",14026.000,"cc",28360.436,6.00,6,0.100,12311.000,0.200,772.000,0.300,414.000,0.500,384.000,1.000,145.000,5.000,0
"04/06/08","12:00:55",14231.000,"cc",28310.586,6.00,6,0.100,12469.000,0.200,868.000,0.300,377.000,0.500,380.000,1.000,137.000,5.000,0
"04/06/08","12:01:01",14292.000,"cc",28261.773,6.00,6,0.100,12568.000,0.200,830.000,0.300,378.000,0.500,381.000,1.000,135.000,5.000,0
"04/06/08","12:01:07",14411.000,"cc",28295.924,6.00,6,0.100,12724.000,0.200,804.000,0.300,385.000,0.500,362.000,1.000,136.000,5.000,0
"04/06/08","12:01:13",14427.000,"cc",28326.627,6.00,6,0.100,12655.000,0.200,847.000,0.300,385.000,0.500,377.000,1.000,163.000,5.000,0
"04/06/08","12:01:19",14623.000,"cc",28268.481,6.00,6,0.100,12812.000,0.200,929.000,0.300,388.000,0.500,367.000,1.000,127.000,5.000,0
"04/06/08","12:01:25",14786.000,"cc",28341.334,6.00,6,0.100,12971.000,0.200,917.000,0.300,391.000,0.500,365.000,1.000,142.000,5.000,0
"04/06/08","12:01:31",14688.000,"cc",28257.377,6.00,6,0.100,12869.000,0.200,926.000,0.300,376.000,0.500,396.000,1.000,121.000,5.000,0
"04/06/08","12:01:37",14890.000,"cc",28336.664,6.00,6,0.100,13094.000,0.200,908.000,0.300,370.000,0.500,374.000,1.000,144.000,5.000,0
"04/06/08","12:01:43",14706.000,"cc",28318.969,6.00,6,0.100,12878.000,0.200,901.000,0.300,416.000,0.500,380.000,1.000,131.000,5.000,0
"04/06/08","12:01:49",14466.000,"cc",28359.633,6.00,6,0.100,12718.000,0.200,908.000,0.300,366.000,0.500,352.000,1.000,122.000,5.000,0
"04/06/08","12:01:55",14574.000,"cc",28343.135,6.00,6,0.100,12780.000,0.200,875.000,0.300,390.000,0.500,393.000,1.000,136.000,5.000,0
"04/06/08","12:02:01",14614.000,"cc",28200.879,6.00,6,0.100,12891.000,0.200,881.000,0.300,388.000,0.500,319.000,1.000,135.000,5.000,0
"04/06/08","12:02:07",14263.000,"cc",28356.908,6.00,6,0.100,12585.000,0.200,869.000,0.300,349.000,0.500,334.000,1.000,126.000,5.000,0
"04/06/08","12:02:13",14410.000,"cc",28290.482,6.00,6,0.100,12740.000,0.200,815.000,0.300,364.000,0.500,341.000,1.000,150.000,5.000,0
"04/06/08","12:02:19",14654.000,"cc",28326.264,6.00,6,0.100,12815.000,0.200,881.000,0.300,404.000,0.500,399.000,1.000,155.000,5.000,0
"04/06/08","12:02:25",14555.000,"cc",28245.459,6.00,6,0.100,12868.000,0.200,857.000,0.300,349.000,0.500,333.000,1.000,148.000,5.000,0
"04/06/08","12:02:31",14621.000,"cc",28333.867,6.00,6,0.100,12916.000,0.200,826.000,0.300,380.000,0.500,364.000,1.000,135.000,5.000,0
"04/06/08","12:02:37",14729.000,"cc",28352.152,6.00,6,0.100,12935.000,0.200,876.000,0.300,385.000,0.500,369.000,1.000,164.000,5.000,0
"04/06/08","12:02:43",14874.000,"cc",28308.531,6.00,6,0.100,13098.000,0.200,878.000,0.300,412.000,0.500,358.000,1.000,128.000,5.000,0
"04/06/08","12:02:49",14729.000,"cc",28309.117,6.00,6,0.100,12915.000,0.200,897.000,0.300,389.000,0.500,393.000,1.000,135.000,5.000,0
"04/06/08","12:02:55",14582.000,"cc",28294.961,6.00,6,0.100,12809.000,0.200,922.000,0.300,362.000,0.500,354.000,1.000,135.000,5.000,0
"04/06/08","12:03:01",14675.000,"cc",28329.926,6.00,6,0.100,12851.000,0.200,904.000,0.300,384.000,0.500,404.000,1.000,132.000,5.000,0
"04/06/08","12:03:07",14570.000,"cc",28294.830,6.00,6,0.100,12816.000,0.200,908.000,0.300,378.000,0.500,351.000,1.000,117.000,5.000,0
"04/06/08","12:03:13",14780.000,"cc",28339.988,6.00,6,0.100,12970.000,0.200,917.000,0.300,377.000,0.500,353.000,1.000,163.000,5.000,0
"04/06/08","12:03:19",14593.000,"cc",28290.801,6.00,6,0.100,12820.000,0.200,895.000,0.300,367.000,0.500,359.000,1.000,152.000,5.000,0
"04/06/08","12:03:25",14741.000,"cc",28333.248,6.00,6,0.100,13020.000,0.200,819.000,0.300,389.000,0.500,379.000,1.000,134.000,5.000,0
"04/06/08","12:03:31",14829.000,"cc",28367.377,6.00,6,0.100,13019.000,0.200,918.000,0.300,352.000,0.500,403.000,1.000,137.000,5.000,0
"04/06/08","12:03:37",14438.000,"cc",28319.707,6.00,6,0.100,12665.000,0.200,834.000,0.300,383.000,0.500,423.000,1.000,133.000,5.000,0
"04/06/08","12:03:43",13054.000,"cc",28387.074,6.00,6,0.100,11439.000,0.200,771.000,0.300,363.000,0.500,356.000,1.000,125.000,5.000,0
"04/06/08","12:03:49",12838.000,"cc",28260.008,6.00,6,0.100,11153.000,0.200,840.000,0.300,353.000,0.500,366.000,1.000,126.000,5.000,0
"04/06/08","12:03:55",12638.000,"cc",28375.865,6.00,6,0.100,10983.000,0.200,790.000,0.300,369.000,0.500,351.000,1.000,145.000,5.000,0
"04/06/08","12:04:01",12670.000,"cc",28340.467,6.00,6,0.100,10999.000,0.200,794.000,0.300,372.000,0.500,397.000,1.000,108.000,5.000,0
"04/06/08","12:04:07",12699.000,"cc",28283.082,6.00,6,0.100,11052.000,0.200,803.000,0.300,331.000,0.500,366.000,1.000,147.000,5.000,0
"04/06/08","12:04:13",12412.000,"cc",28303.607,6.00,6,0.100,10765.000,0.200,786.000,0.300,355.000,0.500,378.000,1.000,128.000,5.000,0
"04/06/08","12:04:19",12397.000,"cc",28306.932,6.00,6,0.100,10795.000,0.200,771.000,0.300,352.000,0.500,355.000,1.000,124.000,5.000,0
"04/06/08","12:04:25",12519.000,"cc",28354.356,6.00,6,0.100,10892.000,0.200,758.000,0.300,369.000,0.500,386.000,1.000,114.000,5.000,0
"04/06/08","12:04:31",12538.000,"cc",28223.316,6.00,6,0.100,10888.000,0.200,779.000,0.300,370.000,0.500,364.000,1.000,137.000,5.000,0
"04/06/08","12:04:37",12524.000,"cc",28277.322,6.00,6,0.100,10893.000,0.200,816.000,0.300,354.000,0.500,340.000,1.000,121.000,5.000,0
"04/06/08","12:04:43",12270.000,"cc",28293.482,6.00,6,0.100,10651.000,0.200,776.000,0.300,353.000,0.500,364.000,1.000,126.000,5.000,0
"04/06/08","12:04:49",12439.000,"cc",28334.272,6.00,6,0.100,10756.000,0.200,763.000,0.300,383.000,0.500,402.000,1.000,135.000,5.000,0
"04/06/08","12:04:55",12598.000,"cc",28308.582,6.00,6,0.100,10979.000,0.200,769.000,0.300,352.000,0.500,377.000,1.000,121.000,5.000,0
"04/06/08","12:05:01",13099.000,"cc",28357.555,6.00,6,0.100,11383.000,0.200,845.000,0.300,363.000,0.500,364.000,1.000,144.000,5.000,0
"04/06/08","12:05:07",13103.000,"cc",28281.824,6.00,6,0.100,11395.000,0.200,791.000,0.300,397.000,0.500,379.000,1.000,141.000,5.000,0
"04/06/08","12:05:13",13192.000,"cc",28384.293,6.00,6,0.100,11457.000,0.200,871.000,0.300,347.000,0.500,371.000,1.000,146.000,5.000,0
"04/06/08","12:05:19",13354.000,"cc",28383.434,6.00,6,0.100,11624.000,0.200,820.000,0.300,377.000,0.500,401.000,1.000,132.000,5.000,0
"04/06/08","12:05:25",13454.000,"cc",28356.061,6.00,6,0.100,11742.000,0.200,813.000,0.300,397.000,0.500,375.000,1.000,127.000,5.000,0
"04/06/08","12:05:31",13253.000,"cc",28320.082,6.00,6,0.100,11555.000,0.200,819.000,0.300,346.000,0.500,397.000,1.000,136.000,5.000,0
"04/06/08","12:05:37",13860.000,"cc",28256.254,6.00,6,0.100,12099.000,0.200,857.000,0.300,382.000,0.500,387.000,1.000,135.000,5.000,0
"04/06/08","12:05:43",13974.000,"cc",28275.711,6.00,6,0.100,12209.000,0.200,847.000,0.300,416.000,0.500,376.000,1.000,126.000,5.000,0
"04/06/08","12:05:49",13996.000,"cc",28385.990,6.00,6,0.100,12259.000,0.200,844.000,0.300,399.000,0.500,355.000,1.000,139.000,5.000,0
"04/06/08","12:05:55",13980.000,"cc",28361.094,6.00,6,0.100,12223.000,0.200,890.000,0.300,368.000,0.500,356.000,1.000,143.000,5.000,0
"04/06/08","12:06:01",13678.000,"cc",28336.238,6.00,6,0.100,11984.000,0.200,823.000,0.300,362.000,0.500,372.000,1.000,137.000,5.000,0
"04/06/08","12:06:07",14253.000,"cc",28341.324,6.00,6,0.100,12449.000,0.200,888.000,0.300,404.000,0.500,389.000,1.000,123.000,5.000,0
"04/06/08","12:06:13",13953.000,"cc",28345.912,6.00,6,0.100,12081.000,0.200,884.000,0.300,436.000,0.500,407.000,1.000,145.000,5.000,0
"04/06/08","12:06:19",13857.000,"cc",28252.225,6.00,6,0.100,12125.000,0.200,831.000,0.300,407.000,0.500,347.000,1.000,147.000,5.000,0
"04/06/08","12:06:25",13738.000,"cc",28346.455,6.00,6,0.100,11999.000,0.200,842.000,0.300,350.000,0.500,404.000,1.000,143.000,5.000,0
"04/06/08","12:06:31",13881.000,"cc",28314.832,6.00,6,0.100,12131.000,0.200,868.000,0.300,362.000,0.500,375.000,1.000,145.000,5.000,0
"04/06/08","12:06:37",13630.000,"cc",28270.465,6.00,6,0.100,11945.000,0.200,824.000,0.300,360.000,0.500,389.000,1.000,112.000,5.000,0
"04/06/08","12:06:43",13935.000,"cc",28313.387,6.00,6,0.100,12239.000,0.200,844.000,0.300,367.000,0.500,353.000,1.000,132.000,5.000,0
"04/06/08","12:06:49",13741.000,"cc",28335.545,6.00,6,0.100,12079.000,0.200,811.000,0.300,353.000,0.500,356.000,1.000,142.000,5.000,0
"04/06/08","12:06:55",14196.000,"cc",28343.094,6.00,6,0.100,12479.000,0.200,801.000,0.300,390.000,0.500,393.000,1.000,133.000,5.000,0
"04/06/08","12:07:01",14102.000,"cc",28275.357,6.00,6,0.100,12354.000,0.200,813.000,0.300,423.000,0.500,379.000,1.000,133.000,5.000,0
"04/06/08","12:07:07",14409.000,"cc",28249.277,6.00,6,0.100,12616.000,0.200,886.000,0.300,408.000,0.500,354.000,1.000,145.000,5.000,0
"04/06/08","12:07:13",14840.000,"cc",28372.719,6.00,6,0.100,13055.000,0.200,879.000,0.300,382.000,0.500,383.000,1.000,141.000,5.000,0
"04/06/08","12:07:19",14485.000,"cc",28351.283,6.00,6,0.100,12692.000,0.200,889.000,0.300,381.000,0.500,384.000,1.000,139.000,5.000,0
"04/06/08","12:07:25",14541.000,"cc",28349.625,6.00,6,0.100,12687.000,0.200,894.000,0.300,403.000,0.500,401.000,1.000,156.000,5.000,0
"04/06/08","12:07:31",14441.000,"cc",28287.645,6.00,6,0.100,12703.000,0.200,832.000,0.300,354.000,0.500,402.000,1.000,150.000,5.000,0
"04/06/08","12:07:37",14347.000,"cc",28291.666,6.00,6,0.100,12585.000,0.200,834.000,0.300,387.000,0.500,405.000,1.000,136.000,5.000,0
"04/06/08","12:07:43",14269.000,"cc",28311.434,6.00,6,0.100,12545.000,0.200,868.000,0.300,348.000,0.500,373.000,1.000,135.000,5.000,0
"04/06/08","12:07:49",14121.000,"cc",28302.193,6.00,6,0.100,12432.000,0.200,811.000,0.300,375.000,0.500,376.000,1.000,127.000,5.000,0
"04/06/08","12:07:55",14218.000,"cc",28326.400,6.00,6,0.100,12496.000,0.200,864.000,0.300,383.000,0.500,363.000,1.000,112.000,5.000,0
"04/06/08","12:08:01",14264.000,"cc",28299.783,6.00,6,0.100,12534.000,0.200,795.000,0.300,406.000,0.500,394.000,1.000,135.000,5.000,0
"04/06/08","12:08:07",14214.000,"cc",28336.641,6.00,6,0.100,12467.000,0.200,867.000,0.300,376.000,0.500,386.000,1.000,118.000,5.000,0
"04/06/08","12:08:13",14490.000,"cc",28335.180,6.00,6,0.100,12746.000,0.200,834.000,0.300,402.000,0.500,370.000,1.000,138.000,5.000,0
"04/06/08","12:08:19",14469.000,"cc",28370.248,6.00,6,0.100,12600.000,0.200,919.000,0.300,411.000,0.500,396.000,1.000,143.000,5.000,0
"04/06/08","12:08:25",14525.000,"cc",28265.693,6.00,6,0.100,12790.000,0.200,878.000,0.300,359.000,0.500,364.000,1.000,134.000,5.000,0
"04/06/08","12:08:31",14425.000,"cc",28322.213,6.00,6,0.100,12714.000,0.200,829.000,0.300,385.000,0.500,365.000,1.000,132.000,5.000,0
"04/06/08","12:08:37",14474.000,"cc",28252.449,6.00,6,0.100,12706.000,0.200,853.000,0.300,395.000,0.500,378.000,1.000,142.000,5.000,0
"04/06/08","12:08:43",14552.000,"cc",28389.873,6.00,6,0.100,12718.000,0.200,897.000,0.300,388.000,0.500,404.000,1.000,145.000,5.000,0
"04/06/08","12:08:49",14396.000,"cc",28294.574,6.00,6,0.100,12632.000,0.200,831.000,0.300,401.000,0.500,383.000,1.000,149.000,5.000,0
"04/06/08","12:08:55",14444.000,"cc",28296.172,6.00,6,0.100,12711.000,0.200,859.000,0.300,369.000,0.500,368.000,1.000,137.000,5.000,0
"04/06/08","12:09:01",14469.000,"cc",28215.016,6.00,6,0.100,12713.000,0.200,848.000,0.300,412.000,0.500,382.000,1.000,114.000,5.000,0
"04/06/08","12:09:07",14283.000,"cc",28338.473,6.00,6,0.100,12571.000,0.200,843.000,0.300,376.000,0.500,365.000,1.000,128.000,5.000,0
"04/06/08","12:09:13",14338.000,"cc",28364.365,6.00,6,0.100,12591.000,0.200,895.000,0.300,363.000,0.500,342.000,1.000,147.000,5.000,0
"04/06/08","12:09:19",14103.000,"cc",28394.199,6.00,6,0.100,12431.000,0.200,815.000,0.300,351.000,0.500,380.000,1.000,126.000,5.000,0
"04/06/08","12:09:25",14349.000,"cc",28273.268,6.00,6,0.100,12569.000,0.200,850.000,0.300,361.000,0.500,421.000,1.000,148.000,5.000,0
"04/06/08","12:09:31",14070.000,"cc",28269.410,6.00,6,0.100,12356.000,0.200,829.000,0.300,371.000,0.500,381.000,1.000,133.000,5.000,0
"04/06/08","12:09:37",14093.000,"cc",28341.834,6.00,6,0.100,12432.000,0.200,805.000,0.300,360.000,0.500,383.000,1.000,113.000,5.000,0
"04/06/08","12:09:43",14103.000,"cc",28293.076,6.00,6,0.100,12382.000,0.200,838.000,0.300,351.000,0.500,377.000,1.000,155.000,5.000,0
"04/06/08","12:09:49",14425.000,"cc",28344.688,6.00,6,0.100,12547.000,0.200,945.000,0.300,393.000,0.500,404.000,1.000,136.000,5.000,0
"04/06/08","12:09:55",14626.000,"cc",28321.275,6.00,6,0.100,12892.000,0.200,908.000,0.300,359.000,0.500,348.000,1.000,119.000,5.000,0
"04/06/08","12:10:01",14695.000,"cc",28273.568,6.00,6,0.100,12862.000,0.200,957.000,0.300,384.000,0.500,357.000,1.000,135.000,5.000,0
"04/06/08","12:10:07",14792.000,"cc",28312.596,6.00,6,0.100,13046.000,0.200,897.000,0.300,357.000,0.500,372.000,1.000,120.000,5.000,0
"04/06/08","12:10:13",14818.000,"cc",28311.088,6.00,6,0.100,13044.000,0.200,887.000,0.300,386.000,0.500,375.000,1.000,126.000,5.000,0
"04/06/08","12:10:19",14893.000,"cc",28342.895,6.00,6,0.100,13100.000,0.200,902.000,0.300,354.000,0.500,379.000,1.000,158.000,5.000,0
"04/06/08","12:10:25",15250.000,"cc",28245.098,6.00,6,0.100,13355.000,0.200,997.000,0.300,381.000,0.500,379.000,1.000,138.000,5.000,0
"04/06/08","12:10:31",15025.000,"cc",28392.676,6.00,6,0.100,13235.000,0.200,911.000,0.300,395.000,0.500,338.000,1.000,146.000,5.000,0
"04/06/08","12:10:37",15097.000,"cc",28289.018,6.00,6,0.100,13286.000,0.200,928.000,0.300,368.000,0.500,363.000,1.000,152.000,5.000,0
"04/06/08","12:10:43",15044.000,"cc",28326.033,6.00,6,0.100,13216.000,0.200,889.000,0.300,403.000,0.500,396.000,1.000,140.000,5.000,0
"04/06/08","12:10:49",15147.000,"cc",28303.037,6.00,6,0.100,13300.000,0.200,934.000,0.300,395.000,0.500,360.000,1.000,158.000,5.000,0
"04/06/08","12:10:55",15616.000,"cc",28256.580,6.00,6,0.100,13716.000,0.200,948.000,0.300,407.000,0.500,397.000,1.000,148.000,5.000,0
"04/06/08","12:11:01",15563.000,"cc",28320.826,6.00,6,0.100,13695.000,0.200,938.000,0.300,389.000,0.500,409.000,1.000,132.000,5.000,0
"04/06/08","12:11:07",15728.000,"cc",28399.190,6.00,6,0.100,13867.000,0.200,953.000,0.300,389.000,0.500,396.000,1.000,123.000,5.000,0
"04/06/08","12:11:13",15387.000,"cc",28362.320,6.00,6,0.100,13528.000,0.200,920.000,0.300,399.000,0.500,377.000,1.000,163.000,5.000,0
"04/06/08","12:11:19",14806.000,"cc",28231.977,6.00,6,0.100,13118.000,0.200,895.000,0.300,339.000,0.500,345.000,1.000,109.000,5.000,0
"04/06/08","12:11:25",14871.000,"cc",28319.315,6.00,6,0.100,13088.000,0.200,882.000,0.300,396.000,0.500,362.000,1.000,143.000,5.000,0
"04/06/08","12:11:31",15031.000,"cc",28381.801,6.00,6,0.100,13224.000,0.200,873.000,0.300,392.000,0.500,383.000,1.000,159.000,5.000,0
"04/06/08","12:11:37",14863.000,"cc",28317.481,6.00,6,0.100,13086.000,0.200,902.000,0.300,374.000,0.500,379.000,1.000,122.000,5.000,0
"04/06/08","12:11:43",14806.000,"cc",28339.477,6.00,6,0.100,13075.000,0.200,886.000,0.300,366.000,0.500,338.000,1.000,141.000,5.000,0
"04/06/08","12:11:49",14920.000,"cc",28290.957,6.00,6,0.100,13128.000,0.200,875.000,0.300,370.000,0.500,387.000,1.000,160.000,5.000,0
"04/06/08","12:11:55",14834.000,"cc",28222.299,6.00,6,0.100,13006.000,0.200,927.000,0.300,367.000,0.500,397.000,1.000,137.000,5.000,0
"04/06/08","12:12:01",14514.000,"cc",28337.498,6.00,6,0.100,12746.000,0.200,898.000,0.300,352.000,0.500,379.000,1.000,139.000,5.000,0
"04/06/08","12:12:07",14738.000,"cc",28302.897,6.00,6,0.100,13080.000,0.200,793.000,0.300,368.000,0.500,359.000,1.000,138.000,5.000,0
"04/06/08","12:12:13",14946.000,"cc",28345.326,6.00,6,0.100,13217.000,0.200,878.000,0.300,362.000,0.500,356.000,1.000,133.000,5.000,0
"04/06/08","12:12:19",15297.000,"cc",28276.943,6.00,6,0.100,13446.000,0.200,942.000,0.300,373.000,0.500,384.000,1.000,152.000,5.000,0
"04/06/08","12:12:25",15321.000,"cc",28300.424,6.00,6,0.100,13482.000,0.200,918.000,0.300,377.000,0.500,399.000,1.000,145.000,5.000,0
"04/06/08","12:12:31",15009.000,"cc",28402.494,6.00,6,0.100,13216.000,0.200,909.000,0.300,361.000,0.500,387.000,1.000,136.000,5.000,0
"04/06/08","12:12:37",15188.000,"cc",28265.527,6.00,6,0.100,13412.000,0.200,892.000,0.300,355.000,0.500,379.000,1.000,150.000,5.000,0
"04/06/08","12:12:43",15325.000,"cc",28330.326,6.00,6,0.100,13426.000,0.200,926.000,0.300,400.000,0.500,400.000,1.000,173.000,5.000,0
"04/06/08","12:12:49",15125.000,"cc",28337.813,6.00,6,0.100,13351.000,0.200,889.000,0.300,379.000,0.500,366.000,1.000,140.000,5.000,0
"04/06/08","12:12:55",14951.000,"cc",28275.416,6.00,6,0.100,13161.000,0.200,884.000,0.300,384.000,0.500,410.000,1.000,112.000,5.000,0
"04/06/08","12:13:01",15178.000,"cc",28253.822,6.00,6,0.100,13400.000,0.200,870.000,0.300,386.000,0.500,374.000,1.000,148.000,5.000,0
"04/06/08","12:13:07",15121.000,"cc",28319.770,6.00,6,0.100,13347.000,0.200,904.000,0.300,395.000,0.500,347.000,1.000,128.000,5.000,0
"04/06/08","12:13:13",15409.000,"cc",28405.887,6.00,6,0.100,13612.000,0.200,879.000,0.300,390.000,0.500,392.000,1.000,136.000,5.000,0
"04/06/08","12:13:19",15098.000,"cc",28260.941,6.00,6,0.100,13220.000,0.200,917.000,0.300,380.000,0.500,408.000,1.000,173.000,5.000,0
"04/06/08","12:13:25",15288.000,"cc",28277.096,6.00,6,0.100,13512.000,0.200,877.000,0.300,394.000,0.500,368.000,1.000,137.000,5.000,0
"04/06/08","12:13:31",15363.000,"cc",28447.168,6.00,6,0.100,13559.000,0.200,954.000,0.300,360.000,0.500,354.000,1.000,136.000,5.000,0
"04/06/08","12:13:37",15288.000,"cc",28227.664,6.00,6,0.100,13424.000,0.200,943.000,0.300,372.000,0.500,406.000,1.000,143.000,5.000,0
"04/06/08","12:13:43",15471.000,"cc",28326.879,6.00,6,0.100,13714.000,0.200,886.000,0.300,358.000,0.500,387.000,1.000,126.000,5.000,0
"04/06/08","12:13:49",15365.000,"cc",28386.297,6.00,6,0.100,13590.000,0.200,876.000,0.300,375.000,0.500,408.000,1.000,116.000,5.000,0
"04/06/08","12:13:55",15507.000,"cc",28299.432,6.00,6,0.100,13678.000,0.200,941.000,0.300,392.000,0.500,354.000,1.000,142.000,5.000,0
"04/06/08","12:14:01",15603.000,"cc",28285.029,6.00,6,0.100,13714.000,0.200,934.000,0.300,416.000,0.500,379.000,1.000,160.000,5.000,0
"04/06/08","12:14:07",15587.000,"cc",28335.076,6.00,6,0.100,13744.000,0.200,920.000,0.300,431.000,0.500,356.000,1.000,136.000,5.000,0
"04/06/08","12:14:13",15404.000,"cc",28323.914,6.00,6,0.100,13546.000,0.200,957.000,0.300,377.000,0.500,381.000,1.000,143.000,5.000,0
"04/06/08","12:14:19",15569.000,"cc",28370.916,6.00,6,0.100,13687.000,0.200,949.000,0.300,376.000,0.500,416.000,1.000,141.000,5.000,0
"04/06/08","12:14:25",15559.000,"cc",28312.861,6.00,6,0.100,13730.000,0.200,933.000,0.300,364.000,0.500,378.000,1.000,154.000,5.000,0
"04/06/08","12:14:31",15655.000,"cc",28272.621,6.00,6,0.100,13795.000,0.200,937.000,0.300,401.000,0.500,374.000,1.000,148.000,5.000,0
"04/06/08","12:14:37",15729.000,"cc",28334.857,6.00,6,0.100,13834.000,0.200,968.000,0.300,403.000,0.500,398.000,1.000,126.000,5.000,0
"04/06/08","12:14:43",15595.000,"cc",28213.338,6.00,6,0.100,13827.000,0.200,924.000,0.300,370.000,0.500,362.000,1.000,112.000,5.000,0
"04/06/08","12:14:49",15651.000,"cc",28332.022,6.00,6,0.100,13873.000,0.200,880.000,0.300,388.000,0.500,377.000,1.000,133.000,5.000,0
"04/06/08","12:14:55",15790.000,"cc",28389.471,6.00,6,0.100,13907.000,0.200,974.000,0.300,391.000,0.500,381.000,1.000,137.000,5.000,0
"04/06/08","12:15:01",15340.000,"cc",28278.455,6.00,6,0.100,13694.000,0.200,825.000,0.300,351.000,0.500,346.000,1.000,124.000,5.000,0
"04/06/08","12:15:07",15753.000,"cc",28308.373,6.00,6,0.100,13879.000,0.200,929.000,0.300,398.000,0.500,393.000,1.000,154.000,5.000,0
"04/06/08","12:15:13",15285.000,"cc",28301.373,6.00,6,0.100,13373.000,0.200,988.000,0.300,368.000,0.500,401.000,1.000,155.000,5.000,0
"04/06/08","12:15:19",15656.000,"cc",28293.311,6.00,6,0.100,13877.000,0.200,914.000,0.300,363.000,0.500,375.000,1.000,127.000,5.000,0
"04/06/08","12:15:25",15763.000,"cc",28284.365,6.00,6,0.100,13891.000,0.200,913.000,0.300,423.000,0.500,392.000,1.000,144.000,5.000,0
"04/06/08","12:15:31",15701.000,"cc",28278.969,6.00,6,0.100,13847.000,0.200,880.000,0.300,413.000,0.500,410.000,1.000,151.000,5.000,0
"04/06/08","12:15:37",15658.000,"cc",28322.975,6.00,6,0.100,13820.000,0.200,936.000,0.300,347.000,0.500,403.000,1.000,152.000,5.000,0
"04/06/08","12:15:43",15306.000,"cc",28364.014,6.00,6,0.100,13483.000,0.200,917.000,0.300,363.000,0.500,391.000,1.000,152.000,5.000,0
"04/06/08","12:15:49",15816.000,"cc",28332.947,6.00,6,0.100,13990.000,0.200,892.000,0.300,399.000,0.500,400.000,1.000,135.000,5.000,0
"04/06/08","12:15:55",15698.000,"cc",28342.557,6.00,6,0.100,13899.000,0.200,934.000,0.300,362.000,0.500,366.000,1.000,137.000,5.000,0
"04/06/08","12:16:01",15666.000,"cc",28309.773,6.00,6,0.100,13921.000,0.200,863.000,0.300,388.000,0.500,346.000,1.000,148.000,5.000,0
"04/06/08","12:16:07",15675.000,"cc",28296.879,6.00,6,0.100,13791.000,0.200,973.000,0.300,430.000,0.500,350.000,1.000,131.000,5.000,0
"04/06/08","12:16:13",15342.000,"cc",28320.084,6.00,6,0.100,13515.000,0.200,878.000,0.300,406.000,0.500,380.000,1.000,163.000,5.000,0
"04/06/08","12:16:19",15436.000,"cc",28339.219,6.00,6,0.100,13497.000,0.200,949.000,0.300,427.000,0.500,414.000,1.000,149.000,5.000,0
"04/06/08","12:16:25",15547.000,"cc",28320.133,6.00,6,0.100,13733.000,0.200,912.000,0.300,382.000,0.500,398.000,1.000,122.000,5.000,0
"04/06/08","12:16:31",15600.000,"cc",28246.191,6.00,6,0.100,13764.000,0.200,907.000,0.300,389.000,0.500,396.000,1.000,144.000,5.000,0
"04/06/08","12:16:37",15493.000,"cc",28411.221,6.00,6,0.100,13682.000,0.200,931.000,0.300,377.000,0.500,363.000,1.000,140.000,5.000,0
"04/06/08","12:16:43",15258.000,"cc",28346.879,6.00,6,0.100,13478.000,0.200,872.000,0.300,419.000,0.500,366.000,1.000,123.000,5.000,0